Location: Eastchurch
(51.4000°N, 0.8667°E)
Time: 09:04:39
(UTC+00:00)

USA 305 - Pass Details

Date: 19 January 2026
Orbit: 491 x 494 km, 54.4° (Epoch: 11 March)

Event Time Altitude Azimuth Distance (km) Brightness Sun altitude
Rises 18:31:13 0° 208° (SSW) 2,418 6.6 -19.3°
Reaches altitude 10° 18:33:28 10° 195° (SSW) 1,640 5.5 -19.7°
Enters shadow 18:35:59 25° 158° (SSE) 1,045 4.1 -20.1°
